Weather History for KDRT - November, 2012

Change the Weather History Date:

Monday, November 19, 2012

  Actual Average Record
Temperature  
Mean Temperature 69 °F 59 °F  
Max Temperature 78 °F 71 °F 91 °F (1950)
Min Temperature 60 °F 48 °F 29 °F (1906)
Degree Days  
Heating Degree Days 0 7  
Month to date heating degree days 40 80  
Since 1 July heating degree days 68 104  
Cooling Degree Days 4 1  
Month to date cooling degree days 85 42  
Year to date cooling degree days 4072 3367  
Growing Degree Days 19 (Base 50)    
Moisture  
Dew Point 56 °F    
Average Humidity 62    
Maximum Humidity 78    
Minimum Humidity 45    
Precipitation  
Precipitation 0.00 in 0.02 in 0.46 in (1992)
Month to date precipitation 0.05 0.64  
Year to date precipitation 13.83 18.58  
Sea Level Pressure  
Sea Level Pressure 30.13 in    
Wind  
Wind Speed 7 mph (SE)    
Max Wind Speed 13 mph    
Max Gust Speed 22 mph    
Visibility 10 miles    
Events      
T = Trace of Precipitation, MM = Missing Value Source: NWS Daily Summary

Daily Weather History Graph

Daily Weather History Graph

Search for Another Location

Airport or City:

Trip Planner

Search our weather history database for the weather conditions in past years. The results will help you decide how hot, cold, wet, or windy it might be!

Date:

Astronomy

Nov. 19, 2012 Rise Set
Actual Time 7:11 AM CST 5:46 PM CST
Civil Twilight 6:46 AM CST 6:12 PM CST
Nautical Twilight 6:17 AM CST 6:41 PM CST
Astronomical Twilight 5:48 AM CST 7:09 PM CST
Moon 12:25 PM CST (11/19) No Moon Set
Length of Visible Light 11h 26m
Length of Day
10h 35m
Waxing Crescent, 41% of the Moon is Illuminated
Nov 19
Waxing Crescent
Nov 20
First Quarter
Nov 28
Full
Dec 6
Last Quarter
Dec 13
New

Hourly Weather History & Observations

Time (CST) Temp. Dew Point Humidity Pressure Visibility Wind Dir Wind Speed Gust Speed Precip Events Conditions
12:53 AM 64.0 °F 54.0 °F 70% 30.13 in 10.0 mi SE 5.8 mph - N/A   Overcast
1:53 AM 64.0 °F 55.0 °F 73% 30.13 in 10.0 mi SE 6.9 mph - N/A   Overcast
2:53 AM 64.0 °F 55.0 °F 73% 30.12 in 10.0 mi ESE 6.9 mph - N/A   Mostly Cloudy
3:53 AM 64.0 °F 54.0 °F 70% 30.12 in 10.0 mi ESE 6.9 mph - N/A   Overcast
4:45 AM 64.4 °F 55.4 °F 73% 30.15 in 10.0 mi ESE 6.9 mph - N/A   Overcast
4:53 AM 63.0 °F 55.0 °F 75% 30.12 in 10.0 mi ESE 8.1 mph - N/A   Overcast
5:53 AM 62.1 °F 54.0 °F 75% 30.13 in 10.0 mi ESE 5.8 mph - N/A   Mostly Cloudy
6:53 AM 60.1 °F 54.0 °F 80% 30.15 in 10.0 mi ESE 3.5 mph - N/A   Mostly Cloudy
7:03 AM 60.8 °F 53.6 °F 77% 30.18 in 10.0 mi East 3.5 mph - N/A   Scattered Clouds
7:53 AM 61.0 °F 54.0 °F 78% 30.17 in 10.0 mi East 4.6 mph - N/A   Clear
8:53 AM 64.9 °F 55.0 °F 70% 30.19 in 10.0 mi ESE 5.8 mph - N/A   Clear
9:53 AM 68.0 °F 55.9 °F 65% 30.20 in 10.0 mi SE 9.2 mph - N/A   Clear
10:53 AM 71.1 °F 57.0 °F 61% 30.19 in 10.0 mi SSE 9.2 mph - N/A   Clear
11:53 AM 72.0 °F 57.0 °F 59% 30.17 in 10.0 mi SE 8.1 mph - N/A   Clear
12:53 PM 73.9 °F 55.9 °F 53% 30.13 in 10.0 mi SE 8.1 mph - N/A   Clear
1:53 PM 77.0 °F 55.9 °F 48% 30.10 in 10.0 mi SSE 6.9 mph - N/A   Clear
2:53 PM 78.1 °F 55.9 °F 46% 30.07 in 10.0 mi SSE 6.9 mph - N/A   Clear
3:53 PM 77.0 °F 55.9 °F 48% 30.07 in 10.0 mi SE 4.6 mph - N/A   Clear
4:53 PM 77.0 °F 55.9 °F 48% 30.08 in 10.0 mi SSE 8.1 mph - N/A   Clear
5:53 PM 73.9 °F 55.9 °F 53% 30.09 in 10.0 mi SE 4.6 mph - N/A   Clear
6:53 PM 72.0 °F 55.9 °F 57% 30.10 in 10.0 mi ESE 5.8 mph - N/A   Clear
7:53 PM 71.1 °F 57.0 °F 61% 30.12 in 10.0 mi ESE 6.9 mph - N/A   Clear
8:53 PM 69.1 °F 57.0 °F 65% 30.13 in 10.0 mi ESE 6.9 mph - N/A   Clear
9:53 PM 68.0 °F 57.0 °F 68% 30.13 in 10.0 mi ESE 5.8 mph - N/A   Clear
10:53 PM 66.0 °F 57.0 °F 73% 30.13 in 10.0 mi ESE 5.8 mph - N/A   Clear
11:53 PM 64.9 °F 57.0 °F 75% 30.14 in 10.0 mi East 6.9 mph - N/A   Clear